Cosmos 1933 Rocket - Orbit

View from above orbital plane
View from above orbital plane
View from above satellite
View from above satellite

Ground track
Ground track

The orbit data is extracted from the following two-line orbital elements,

1 18959U 88020B   13141.35412521  .00000322  00000-0  37051-4 0  9394
2 18959 082.5392 220.3341 0016749 007.0612 037.9576 14.82484689360078
Epoch (UTC): 21 May 2013 08:29:56
Eccentricity: 0.0016749
inclination: 82.5392°
perigee height: 610 km
apogee height: 633 km
right ascension of ascending node: 220.3341°
argument of perigee: 7.0612°
revolutions per day: 14.82484689
mean anomaly at epoch: 37.9576°
orbit number at epoch: 36007

The dashed part of the orbit path shows where the satellite is in the earth's shadow,  

Developed and maintained by Chris Peat, Heavens-Above GmbH. Please read the updated FAQ before sending e-mail. Imprint. DLR